Wind_Speed
7 6 5 5 4 4 5 6 6 7 6 6 6 6 6 7 8 9 10 10 11 11 11 11 12 11 13 12 12 12 11 10 6 11 17 23 27 32 33 35 33 33 36
9 8 6 5 5 5 6 7 7 7 7 7 7 8 8 9 9 9 10 10 11 11 11 11 12 11 15 14 14 14 13 12 12 14 18 20 25 31 32 34 33 30 32
12 10 8 7 6 6 6 7 7 8 8 8 8 9 9 9 9 9 9 10 10 11 10 12 11 12 14 15 13 16 14 15 15 16 17 21 23 23 32 29 30 30 30
14 12 9 8 7 7 7 7 8 9 9 9 10 11 11 9 8 8 9 8 8 9 8 10 12 12 14 14 12 14 14 14 15 15 19 21 20 25 24 29 34 32 37
16 14 12 10 9 8 9 9 9 11 11 11 10 11 11 10 8 6 8 8 7 8 9 8 11 11 12 13 13 15 14 15 15 16 18 19 22 29 28 30 31 36 35
19 16 13 12 11 11 11 11 11 12 11 11 11 12 13 11 10 8 7 8 7 5 7 7 8 12 14 12 12 11 11 14 15 15 14 17 21 23 27 28 28 29 12
20 17 15 14 13 13 13 12 12 11 11 12 11 12 13 12 10 9 8 7 6 5 7 8 9 10 14 14 12 11 12 11 12 12 14 16 20 23 25 26 25 25 25
21 19 17 16 16 16 15 13 12 12 12 12 9 10 12 10 10 8 7 6 6 6 8 9 10 11 14 14 11 12 14 11 15 13 13 14 16 19 19 20 23 27 32
22 20 19 18 18 17 17 17 15 14 12 12 10 8 8 8 9 8 5 6 6 6 7 9 11 9 12 14 11 14 17 14 16 15 14 15 16 17 20 24 25 25 18
22 21 19 19 18 19 18 18 16 14 13 12 10 8 7 8 8 9 6 5 6 4 4 5 9 10 11 12 11 12 16 18 21 21 20 19 20 20 20 18 19 20 19
21 20 19 18 20 19 18 16 18 16 15 13 11 9 7 6 9 8 9 6 3 3 3 5 9 9 10 11 10 12 14 14 17 19 21 24 25 26 25 23 17 18 20
21 21 21 21 19 18 19 18 18 17 16 13 10 10 8 8 6 7 6 6 4 4 4 5 5 7 7 9 10 11 13 16 19 22 25 27 28 28 26 23 19 20 18
22 22 21 20 20 20 20 19 18 17 16 13 11 10 8 6 6 5 5 4 6 4 3 3 4 5 6 8 11 12 16 20 22 24 25 25 25 26 26 27 27 27 27
24 23 23 23 22 19 18 17 17 17 16 14 12 11 10 7 5 2 4 2 5 1 1 2 3 5 7 9 11 15 17 18 19 20 21 23 26 29 30 30 28 30 26
25 26 25 24 23 21 18 16 15 14 13 14 12 12 13 9 5 1 3 5 7 2 2 2 3 7 10 12 13 14 15 17 19 19 21 24 26 29 31 30 30 28 22
27 26 26 25 23 20 18 14 10 10 9 9 10 9 10 4 2 3 1 2 2 1 3 6 7 9 11 13 15 15 15 17 17 18 19 21 24 26 29 30 29 27 23
26 26 26 25 24 23 22 23 23 14 9 9 9 8 4 3 3 3 2 4 2 3 5 6 7 9 11 12 13 14 16 16 16 16 17 19 21 24 27 28 29 26 24
27 28 27 26 25 24 24 24 20 20 20 16 10 8 6 4 4 4 4 4 6 6 6 7 7 9 11 13 14 15 16 16 15 15 16 17 19 22 25 26 28 26 24
26 25 24 23 22 22 23 22 20 17 16 16 14 13 12 7 5 5 6 8 9 8 9 9 10 10 11 13 14 15 16 16 16 17 16 17 18 20 23 24 25 28 28
23 24 24 23 23 22 21 21 20 18 17 16 15 13 12 11 12 11 11 10 11 11 12 12 11 12 13 14 15 16 17 16 15 16 16 17 17 18 20 22 24 27 29
25 25 23 23 22 21 21 20 18 17 15 14 11 11 10 11 11 13 13 13 14 14 14 15 14 14 14 15 17 17 18 17 16 16 17 17 17 19 20 21 23 26 29
26 26 25 23 22 21 20 18 17 16 14 12 11 11 9 15 16 16 16 16 15 16 16 17 16 15 15 16 17 18 20 19 17 16 17 18 16 18 20 22 23 26 29
26 25 24 23 22 20 19 18 17 15 14 13 12 13 14 15 17 18 18 17 17 17 17 19 19 18 16 16 17 18 20 20 18 17 18 19 17 19 20 22 24 26 29
26 25 25 24 23 22 21 19 17 16 15 15 15 15 16 16 18 19 19 18 18 18 18 20 20 20 19 18 17 18 19 19 18 17 17 18 18 20 21 22 23 26 29
27 26 25 25 24 23 20 19 18 17 17 17 18 18 18 18 20 20 19 19 19 20 20 20 21 21 20 19 19 18 18 18 18 16 15 16 18 20 21 22 24 27 28
28 27 26 24 23 22 21 21 20 20 20 20 20 20 20 20 21 21 21 20 21 22 22 21 21 21 21 20 19 18 18 18 18 14 14 15 19 21 21 22 25 27 28
Wind_Direction
226 219 202 182 169 162 150 139 141 141 137 127 112 107 109 116 116 117 109 104 99 91 77 71 63 49 39 36 26 27 21 9 309 302 309 326 336 342 342 343 348 347 346
220 213 203 188 173 170 156 146 146 144 138 125 117 107 104 104 104 104 99 95 92 85 76 72 65 50 36 31 22 12 6 359 339 319 323 332 334 339 338 342 341 341 342
214 210 200 194 185 173 158 152 151 146 140 130 117 100 98 99 97 92 94 90 89 84 74 62 58 49 32 22 12 4 2 348 349 326 318 326 329 339 337 339 340 338 336
211 206 201 196 188 173 161 155 152 150 140 126 110 94 80 86 92 85 87 84 80 76 73 62 49 47 24 15 7 5 355 354 347 339 331 333 338 342 343 339 336 338 334
209 205 200 192 184 173 165 160 155 152 141 127 112 90 77 70 63 88 87 87 61 62 71 57 44 45 23 12 7 1 1 357 352 350 337 337 339 344 345 335 330 332 332
206 201 195 188 181 174 168 161 153 145 140 132 113 93 75 61 59 73 81 73 68 63 54 57 39 23 17 8 3 12 12 1 357 349 335 336 333 335 334 333 331 336 331
199 195 190 184 177 170 163 156 150 145 141 126 113 98 78 59 45 63 78 72 67 65 52 44 33 20 11 0 3 15 10 17 9 352 339 336 329 334 334 332 330 322 306
192 189 187 182 176 168 166 162 152 147 142 136 124 106 89 62 44 61 75 83 69 62 50 46 30 18 13 2 3 8 7 6 4 359 345 336 337 338 339 331 325 320 320
187 188 186 185 178 175 171 164 162 154 149 137 145 144 113 73 48 47 86 83 66 61 44 54 34 18 9 8 10 5 2 357 360 359 358 357 354 354 352 345 350 346 334
186 186 185 186 183 179 176 170 161 161 155 145 142 152 134 91 50 43 54 60 57 66 46 34 34 17 14 12 15 4 5 354 357 359 6 8 7 5 2 0 346 335 331
183 183 183 183 181 179 172 174 164 162 161 154 155 152 143 127 76 48 44 49 66 88 58 32 39 14 16 18 18 13 10 352 6 8 8 9 8 7 6 1 348 332 321
181 179 179 178 179 174 173 173 169 168 165 159 156 145 149 123 84 64 59 65 75 71 58 29 21 16 19 28 22 14 15 10 11 11 11 8 2 1 358 353 345 343 327
177 176 176 174 174 175 173 177 169 177 171 165 167 159 141 131 130 96 74 89 51 54 65 53 27 29 12 10 24 15 8 13 13 12 7 2 359 357 358 356 358 357 352
177 176 173 173 173 175 177 178 179 181 178 182 175 166 158 143 119 118 40 48 4 45 82 27 6 4 13 16 16 15 15 14 13 7 0 357 358 359 3 2 355 348 344
180 176 175 177 175 174 179 180 186 189 195 188 184 173 159 143 116 80 24 10 360 35 41 357 354 1 6 11 17 15 10 8 5 2 359 357 357 358 358 2 1 349 340
173 174 176 175 176 175 168 157 163 164 153 158 158 164 171 146 159 154 156 138 200 251 340 359 3 3 1 2 1 1 5 3 0 355 355 355 353 354 353 358 0 351 338
175 176 177 179 178 174 171 163 154 157 156 161 175 185 188 165 190 188 200 198 168 331 337 347 345 346 347 349 347 349 348 352 349 347 348 351 350 350 353 353 354 349 340
187 187 183 184 185 183 184 183 183 181 180 182 180 184 204 196 208 202 217 256 286 312 325 326 327 328 329 331 333 333 336 339 341 342 342 347 349 347 348 349 350 344 337
188 186 187 187 187 190 189 192 199 206 211 216 218 218 217 215 207 217 233 292 301 308 309 311 311 313 315 316 319 321 324 330 332 332 336 341 344 343 343 344 346 348 345
188 186 186 186 187 190 195 200 205 211 214 216 220 223 228 231 239 255 270 289 296 296 296 299 301 303 307 309 312 313 315 321 322 322 328 335 338 339 340 340 343 343 343
186 186 188 190 193 196 200 204 208 211 215 221 225 230 240 249 257 267 277 284 291 290 290 290 292 296 299 300 304 306 308 314 317 317 321 330 332 335 339 339 340 342 343
188 189 190 194 197 201 206 208 212 218 223 231 237 240 234 246 261 270 276 280 283 281 282 284 287 288 291 292 296 300 304 308 313 313 315 323 323 330 334 334 337 340 343
193 192 195 200 205 208 209 214 220 228 236 242 246 252 254 260 266 272 277 279 276 276 278 280 285 286 287 288 290 294 297 303 309 306 310 315 316 324 330 329 331 334 338
195 199 202 205 207 212 216 221 229 236 244 252 257 262 263 266 269 271 274 275 274 275 275 276 280 283 285 284 286 290 294 299 300 300 302 307 309 319 322 324 326 329 331
202 204 207 210 214 218 223 230 236 243 250 256 261 265 268 270 270 271 274 275 275 276 276 276 277 279 282 285 287 291 293 294 294 294 295 298 303 311 313 316 320 324 327
207 211 215 218 222 226 231 236 242 249 254 260 265 268 270 272 273 274 275 275 275 276 277 276 276 277 279 280 282 285 288 291 291 290 296 297 302 303 307 310 316 319 324
Height
834 834 833 832 832 833 833 833 833 834 834 834 833 833 832 831 831 830 828 828 827 828 829 829 829 828 827 827 826 824 823 822 820 816 813 810 804 799 794 791 786 782 779
833 834 834 833 833 834 834 834 835 835 835 835 835 834 834 834 833 833 831 831 830 829 830 829 829 829 829 828 827 825 823 822 819 813 810 807 802 798 793 787 784 780 775
831 832 832 833 834 835 835 835 836 836 837 838 837 836 836 835 835 835 835 835 834 832 831 831 830 830 828 829 828 825 823 821 818 817 811 806 800 795 789 785 780 776 773
830 830 830 832 834 835 836 837 837 838 839 840 840 838 837 837 838 838 838 839 839 836 834 832 832 832 832 830 828 825 822 819 818 815 811 806 800 795 790 784 774 773 765
826 827 829 830 832 834 836 838 838 839 840 841 842 843 841 839 840 840 839 838 842 840 838 837 835 834 835 834 831 826 823 821 818 814 812 807 802 796 792 787 781 770 764
822 824 827 829 831 833 836 838 839 841 842 844 843 844 845 845 843 841 840 840 842 843 840 838 837 836 835 834 832 827 825 823 820 818 815 811 806 801 796 792 786 777 766
818 822 825 828 831 834 836 837 839 840 844 844 847 844 846 848 846 843 841 842 844 844 841 839 837 837 838 834 831 828 825 825 823 820 817 814 809 804 799 793 788 783 776
814 819 823 826 829 831 834 836 839 841 841 840 849 848 848 848 847 844 844 843 844 843 840 840 840 840 839 836 831 828 825 825 822 820 817 813 810 805 801 796 789 780 769
812 816 820 824 827 829 831 832 835 837 843 839 844 849 848 849 848 845 845 842 843 845 843 842 842 841 839 836 832 828 826 825 821 818 814 810 806 803 800 792 786 781 770
809 813 817 821 824 827 831 832 833 836 841 839 843 847 848 848 849 847 845 843 842 844 845 844 843 842 838 836 832 831 828 823 818 813 810 806 803 800 797 794 791 787 783
806 811 815 819 823 826 827 833 832 836 838 838 842 845 847 848 847 847 845 843 844 844 844 843 841 841 838 836 834 832 828 823 818 813 809 805 802 799 797 794 792 788 783
805 808 812 816 820 822 826 830 832 833 836 839 843 843 846 846 846 847 845 845 842 841 841 840 840 840 838 836 833 831 825 820 816 811 807 804 802 799 797 794 790 785 781
804 808 811 814 818 822 825 829 830 833 835 839 841 842 843 845 846 846 846 845 841 839 840 840 839 837 835 833 831 827 822 817 814 811 809 807 804 800 796 791 786 781 775
801 805 809 812 817 820 825 827 830 833 835 838 839 841 843 845 846 845 844 841 840 839 839 838 837 835 833 831 827 824 821 819 816 814 811 807 803 798 794 790 783 777 770
800 803 807 811 815 819 823 826 830 831 834 836 839 840 843 844 844 843 842 840 838 838 837 837 835 833 830 828 825 824 822 819 817 815 811 806 802 798 793 789 784 777 772
797 801 805 808 813 818 823 827 830 833 835 836 839 840 841 842 843 843 842 841 840 836 836 834 831 829 828 826 825 823 821 819 816 814 811 808 803 798 793 789 784 779 772
793 798 802 806 812 815 821 825 828 833 835 838 839 840 841 841 841 841 841 838 837 834 833 831 830 829 827 826 825 823 820 818 816 814 811 808 804 799 794 789 785 779 773
792 796 800 804 809 814 819 823 826 828 830 833 835 836 838 839 839 839 838 836 834 831 830 829 828 827 826 824 823 822 820 818 816 813 811 808 804 799 795 790 785 780 774
790 795 799 804 809 813 817 821 824 826 828 829 831 833 834 835 836 835 833 832 831 830 828 826 825 824 823 822 821 820 818 817 814 811 809 806 803 799 794 790 786 780 775
789 793 798 802 806 811 814 817 820 822 824 826 827 828 830 831 830 830 829 828 828 827 825 824 823 822 821 820 819 817 816 815 812 810 807 804 801 798 794 790 786 781 775
787 791 796 800 804 807 810 813 816 818 820 821 823 823 825 825 825 825 825 825 824 824 823 821 819 818 818 817 816 815 813 811 810 807 804 802 799 795 793 789 785 780 775
784 788 793 797 801 804 807 810 812 814 815 817 818 819 821 821 821 821 820 820 820 819 819 817 816 815 815 814 813 811 810 808 807 804 802 799 797 794 791 787 784 779 774
782 786 790 794 797 801 804 806 807 809 811 812 813 814 815 815 815 815 815 816 815 814 814 813 811 811 811 810 809 808 805 804 803 801 798 796 794 791 789 785 782 778 773
779 783 786 790 794 796 799 801 803 804 805 806 808 809 810 810 810 810 810 810 810 809 808 808 807 806 805 804 804 803 801 800 798 797 795 792 790 788 786 783 780 776 772
775 779 782 785 788 790 793 795 797 798 800 801 802 803 804 805 804 804 804 804 804 803 803 803 802 800 799 798 798 797 796 795 794 793 791 789 787 785 783 780 777 774 770
771 774 777 780 783 785 787 789 790 792 793 795 796 797 798 798 798 798 798 798 798 797 796 796 796 794 793 792 791 791 790 790 789 788 787 785 783 781 779 777 774 771 768